Location: Newark
(56.0692°N, 115.8617°E)
Time: 07:42:36
(UTC+00:00)

Vanguard 1 Rocket - All Passes

Search period start: 26 May 2020 00:00
Search period end: 05 June 2020 00:00
Orbit: 653 x 4224 km, 34.3° (Epoch: 25 May)

Date Brightness Start Highest point End Pass type
(mag) Time Alt. Az. Time Alt. Az. Time Alt. Az.
26 May - 17:17:17 10° SSW 17:23:54 15° SSE 17:28:59 10° SE visible
26 May - 19:42:37 10° SW 19:48:29 16° S 19:52:50 10° SSE daylight
27 May - 16:06:48 10° S 16:12:30 13° SSE 16:17:11 10° SE visible
27 May - 18:29:45 10° SW 18:37:38 18° S 18:43:12 10° SE visible
27 May - 20:57:59 10° SW 21:01:32 13° SSW 21:04:27 10° S daylight
28 May - 17:17:13 10° SSW 17:26:27 19° S 17:32:57 10° SE visible
28 May - 19:44:13 10° SW 19:51:02 18° SSW 19:55:55 10° SSE daylight
29 May - 16:05:25 10° SSW 16:14:57 17° SSE 16:21:59 10° SE visible
29 May - 18:30:52 10° SW 18:40:12 21° S 18:46:28 10° SE visible
29 May - 21:00:19 10° SW 21:03:58 13° SSW 21:06:59 10° S daylight
30 May - 14:55:08 10° S 15:03:13 14° SSE 15:09:43 10° SE visible
30 May - 17:17:44 10° SW 17:28:58 22° S 17:36:26 10° SE visible
30 May - 19:46:01 10° SW 19:53:32 19° SSW 19:58:48 10° SSE daylight
31 May - 16:05:08 10° SSW 16:17:23 21° SSE 16:25:48 10° ESE visible
31 May - 18:32:13 10° SW 18:42:41 23° S 18:49:31 10° SE visible
31 May - 21:02:56 10° SW 21:06:19 12° SW 21:09:10 10° SSW daylight
01 Jun - 14:53:33 10° S 15:05:30 19° SSE 15:14:20 10° ESE visible
01 Jun - 17:18:36 10° SW 17:31:25 25° S 17:39:39 10° SE visible
01 Jun - 19:47:57 10° WSW 19:55:56 19° SSW 20:01:29 10° SSE daylight
02 Jun - 13:43:57 10° S 13:53:29 15° SSE 14:01:18 10° ESE visible
02 Jun - 16:05:24 10° SSW 16:19:45 25° S 16:29:13 10° ESE visible
02 Jun - 18:33:44 10° WSW 18:45:06 24° SSW 18:52:25 10° SE visible
02 Jun - 21:06:00 10° SW 21:08:34 11° SW 21:10:48 10° SSW daylight
03 Jun - 14:53:01 10° SSW 15:07:44 23° SSE 15:18:06 10° ESE visible
03 Jun - 17:19:42 10° SW 17:33:49 28° S 17:42:40 10° SE visible
03 Jun - 19:50:02 10° WSW 19:58:14 19° SSW 20:03:59 10° S daylight
04 Jun - 13:42:02 10° S 13:55:33 19° SSE 14:05:58 10° ESE visible
04 Jun - 16:06:02 10° SW 16:22:03 28° S 16:32:22 10° ESE visible
04 Jun - 18:35:23 10° WSW 18:47:27 25° SSW 18:55:09 10° SSE visible
